Location: Miramont
(43.5444°N, 0.4666°E)
Time: 05:06:24
(UTC+00:00)

Daily predictions for brighter satellites

Satellite Brightness Start Highest point End
(mag) Time Altitude Azimuth Time Altitude Azimuth Time Altitude Azimuth
Cosmos 2184 Rocket 4.5 00:01:12 10° N 00:06:08 57° N 00:06:08 57° N
SJ 16-02 4.2 00:25:14 12° ENE 00:25:14 12° ENE 00:25:46 10° NE
Cosmos 2263 Rocket 4.5 00:32:09 14° WNW 00:33:37 15° NW 00:36:48 10° N
Cosmos 1844 Rocket 3.8 00:46:55 39° NNW 00:46:55 39° NNW 00:51:04 10° NNE
Resurs 1-4 Rocket 3.4 00:57:17 10° NNE 01:01:06 34° ENE 01:01:06 34° ENE
SL-4 R/B 4.2 01:05:32 28° NE 01:05:32 28° NE 01:08:18 10° E
Cosmos 2082 Rocket 3.9 01:00:39 10° N 01:05:29 28° NE 01:08:15 19° E
Cosmos 2218 Rocket 4.3 01:01:06 10° N 01:06:59 61° ENE 01:06:59 61° ENE
CZ-4C R/B 4.0 01:04:25 10° NNW 01:11:08 42° NE 01:18:52 10° ESE
Cosmos 1833 Rocket 3.2 01:06:16 10° NNW 01:11:25 55° NE 01:11:25 55° NE
Cosmos 2366 rocket 4.1 01:09:16 10° N 01:15:08 68° ENE 01:15:08 68° ENE
CZ-2D R/B 2.9 01:11:38 10° NNE 01:16:15 48° ENE 01:16:15 48° ENE
SL-16 R/B 2.8 01:19:17 59° E 01:19:53 62° ENE 01:26:04 10° N
USA 281 4.2 01:24:57 33° WNW 01:24:57 33° WNW 01:29:05 10° NW
Cosmos 2278 Rocket 2.5 01:30:00 65° NE 01:30:00 65° NE 01:34:53 10° NNE
Cosmos 1943 Rocket 4.4 01:29:12 13° ESE 01:30:32 14° E 01:33:16 10° ENE
ADEOS II 3.3 01:30:09 10° NNE 01:34:54 33° E 01:35:02 33° E
Meteor 2-9 Rocket 4.3 01:37:12 10° N 01:42:55 82° NE 01:42:55 82° NE
Gbstr 26 Del rocket 4.1 01:46:45 56° NW 01:47:20 58° NNW 01:52:36 10° NE
ATLAS 5 CENTAUR R/B 2.3 01:42:30 10° NW 01:48:13 89° ENE 01:48:22 86° ESE
Cosmos 1238 Rocket 4.2 01:43:20 10° NNW 01:49:15 59° WNW 01:49:15 59° WNW
COSMOS 2406 3.7 01:46:01 10° NNW 01:50:17 51° NW 01:50:17 51° NW
NPP 3.6 01:52:27 10° NNE 01:57:40 83° N 01:57:40 83° N
IDEFIX/ARIANE 42P 4.2 01:53:35 10° NE 01:57:59 27° E 01:59:37 23° ESE
IRS-1D 4.2 01:55:21 10° NNE 02:00:22 47° E 02:00:56 45° ESE
SJ 16-02 2.6 02:02:12 34° NNW 02:02:12 34° NNW 02:05:12 10° N
NOSS 3-3 (A) 3.9 02:02:18 63° WNW 02:02:47 66° NW 02:09:19 10° NNE
NOSS 3-3 (C) 3.9 02:02:25 64° WNW 02:02:53 66° NW 02:09:26 10° NNE
BREEZE-M DEB (TANK) 4.3 02:06:12 44° SSE 02:06:12 44° SSE 02:16:54 10° SE
Okean 1-7 3.5 02:09:59 56° NE 02:09:59 56° NE 02:13:31 10° NNE
ATLAS 2AS CENTAUR R/B 4.2 02:02:34 10° NNW 02:09:25 37° NE 02:15:46 10° ESE
Cosmos 1378 4.4 02:18:53 37° ENE 02:18:53 37° ENE 02:21:54 10° NNE
DELTA 2 R/B (1) 3.7 02:23:21 56° SSE 02:23:21 56° SSE 02:28:20 10° E
CZ-4C R/B 4.0 02:23:10 51° ESE 02:23:55 59° ENE 02:28:17 10° N
ADEOS Rocket 3.5 02:21:30 18° SSE 02:26:28 70° ENE 02:33:33 10° N
Cosmos 1680 Rocket 3.4 02:21:22 10° NNW 02:26:41 77° WSW 02:27:04 72° SSW
Meteor 1-13 Rocket 4.3 02:34:31 43° S 02:36:29 76° E 02:42:11 10° NNE
Meteor 2-4 Rocket 4.0 02:38:27 49° WSW 02:39:24 55° WNW 02:45:13 10° N
Meteor 1-12 Rocket 4.3 02:35:36 10° N 02:41:39 84° E 02:45:21 24° SSE
Resurs 1-4 Rocket 3.1 02:37:21 10° N 02:41:51 30° WNW 02:42:11 29° WNW
SL-4 R/B 2.3 02:41:13 26° WNW 02:43:59 89° SSW 02:48:47 10° SE
Sich 1 Rocket 4.1 02:41:14 10° N 02:45:47 60° E 02:48:26 24° SSE
Cosmos 2242 Rocket 4.2 02:46:17 40° WNW 02:46:17 40° WNW 02:50:03 10° N
USA 234 3.2 02:39:59 10° NE 02:46:34 85° NW 02:49:15 39° WSW
Cosmos 2082 Rocket 2.3 02:44:24 10° NW 02:49:46 47° WSW 02:50:01 47° WSW
Helios 1B rocket 4.5 02:49:06 10° NNW 02:51:10 16° NW 02:51:10 16° NW
Cosmos 1833 Rocket 4.4 02:51:05 10° NW 02:53:04 17° WNW 02:53:04 17° WNW
CZ-2C R/B 4.5 02:51:38 10° NE 02:55:28 23° E 02:59:21 10° SSE
Cosmos 1356 Rocket 3.6 02:52:19 10° N 02:56:27 71° ENE 02:58:36 28° SSE
CZ-2D R/B 3.5 02:52:22 10° N 02:56:41 24° WNW 02:57:34 23° WNW
Meteor 1-28 Rocket 3.9 02:58:47 38° NW 02:58:47 38° NW 03:01:29 10° NNW
CZ-4C R/B 3.0 02:52:48 10° NW 03:00:06 58° WSW 03:08:22 10° SSE
MSX 4.0 02:55:37 10° NNE 03:01:22 72° ESE 03:05:02 23° S
IRS-P3 4.1 02:58:14 10° NNE 03:03:37 86° ESE 03:06:22 30° SSW
SL-16 R/B 3.8 03:04:21 22° W 03:04:21 22° W 03:08:42 10° NW
Cosmos 1937 Rocket 3.7 03:05:40 40° WSW 03:07:03 51° WNW 03:12:04 10° N
Cosmos 2084 3.8 03:08:33 42° W 03:09:24 49° NW 03:13:33 10° NNE
ARIANE 5 R/B 2.6 03:07:45 10° NNE 03:13:01 82° ESE 03:16:19 23° S
ARGOS Delta rocket 4.4 03:09:26 10° N 03:13:23 32° WNW 03:13:56 31° W
Cosmos 1943 Rocket 2.1 03:10:44 32° SSW 03:13:28 85° WNW 03:19:10 10° NNE
Cosmos 1898 Rocket 4.4 03:12:10 29° W 03:13:37 34° WNW 03:18:26 10° N
Cosmos 2278 Rocket 3.9 03:11:50 16° WNW 03:13:56 20° NW 03:17:59 10° N
ADEOS II 3.0 03:09:52 10° N 03:14:32 33° WNW 03:15:59 28° W
Cosmos 1339 Rocket 4.5 03:13:42 24° SSW 03:17:47 75° W 03:24:13 10° N
Cosmos 1842 4.3 03:17:40 13° SSE 03:20:55 43° E 03:24:37 10° NNE
Milstar 3 4.0 03:20:33 22° SSW 03:23:37 29° S 03:32:18 10° ESE
Cosmos 1066 Rocket 4.4 03:21:51 27° SW 03:25:01 58° WNW 03:30:49 10° N
Spot 4 Rocket 4.3 03:20:19 10° NNE 03:25:28 66° ESE 03:30:17 12° S
Meteor 1-15 Rocket 4.1 03:22:14 10° NNW 03:27:46 68° W 03:33:19 10° S
Cosmos 2298 Rocket 4.3 03:24:39 16° S 03:28:53 66° ESE 03:34:09 10° NNE
Cosmos 372 Rocket 4.1 03:26:24 29° SW 03:28:55 59° WNW 03:33:59 10° NNE
FALCON 9 DEB 3.7 03:30:20 33° S 03:30:20 33° S 03:32:28 10° SSE
ATLAS 5 CENTAUR R/B 4.1 03:28:30 10° WNW 03:29:45 14° W 03:29:45 14° W
X-37B 0.8 03:33:10 33° W 03:34:24 68° N 03:37:34 10° ENE
CZ-2D R/B 3.4 03:32:06 10° N 03:36:15 78° WNW 03:39:12 19° SSW
Cosmos 2151 Rocket 3.5 03:31:44 10° NNW 03:36:16 76° W 03:40:46 10° S
Okean 2 4.3 03:32:46 10° SSE 03:36:46 49° E 03:40:48 10° NNE
Cosmos 1300 Rocket 3.9 03:32:59 10° NNW 03:37:14 44° W 03:39:59 20° SSW
IDEFIX/ARIANE 42P 3.2 03:32:48 10° N 03:37:39 40° WNW 03:40:26 23° WSW
Cosmos 2369 Rocket 2.2 03:34:19 17° SSW 03:38:38 84° ESE 03:44:17 10° NNE
Okean 2 Rocket 3.2 03:36:19 10° NNW 03:40:37 51° W 03:44:24 13° SSW
CZ-3B R/B 4.0 03:25:17 19° SW 03:40:57 90° SSE 03:45:57 10° NE
Meteor 1-23 Rocket 4.4 03:38:19 19° SSW 03:42:17 56° WNW 03:47:57 10° N
DNEPR-1 R/B 4.3 03:38:35 17° SSW 03:43:30 83° SE 03:48:46 10° NE
Cosmos 1153 Rocket 4.5 03:37:59 10° N 03:44:17 86° W 03:50:38 10° S
CZ-2C R/B 3.0 03:41:19 10° NNE 03:45:06 67° ESE 03:48:57 10° S
NOSS 3-4 (A) 4.1 03:39:29 10° NW 03:46:17 47° WSW 03:53:46 10° S
NOSS 3-4 (C) 4.1 03:39:35 10° NW 03:46:24 48° WSW 03:53:54 10° S
Cosmos 2221 Rocket 4.1 03:44:54 22° SW 03:47:22 41° WNW 03:51:41 10° N
Cosmos 1125 Rocket 3.7 03:44:48 10° SSW 03:50:03 73° ESE 03:55:19 10° NNE
BREEZE-M DEB (TANK) 1.9 03:49:48 18° WNW 03:51:15 67° SW 03:55:05 10° SE
SL-08 R/B 3.8 03:48:09 10° S 03:52:47 41° W 03:57:21 10° NNW
Cosmos 1766 3.8 03:52:50 10° NNW 03:56:35 39° W 04:00:18 10° SSW
CZ-4B R/B 4.2 03:52:57 10° N 03:57:13 34° WNW 04:00:24 16° WSW
ATLAS 2AS CENTAUR R/B 2.8 03:53:37 10° NW 04:00:44 59° WSW 04:07:18 10° SSE
Okean 1 Rocket 3.0 03:59:57 10° N 04:04:26 80° W 04:08:52 10° S
Cosmos 1733 4.3 04:02:58 10° NW 04:06:06 25° W 04:08:39 13° SW
Cosmos 2150 Rocket 4.2 04:02:17 11° SSW 04:07:33 64° WNW 04:12:57 10° NNE
FALCON 9 DEB 4.4 04:08:09 17° SW 04:08:20 17° SW 04:10:24 10° S
FENGYUN 3A 4.0 04:03:03 10° NNE 04:08:26 69° ESE 04:13:47 10° S
DELTA 2 R/B (1) 3.9 04:04:06 12° W 04:08:58 47° SSW 04:14:17 10° ESE
ADEOS Rocket 4.4 04:08:26 12° SW 04:12:41 22° W 04:17:50 10° NW
Meteor 2-20 Rocket 4.5 04:08:54 10° SSW 04:15:00 69° W 04:21:10 10° N
Meteor 1-22 Rocket 4.5 04:09:51 10° NNW 04:15:15 49° W 04:20:51 10° SSW
Cosmos 1656 Rocket 3.6 04:12:40 10° SSW 04:18:04 76° WNW 04:23:33 10° NNE
SL-27 R/B 2.5 04:16:26 10° NNW 04:19:44 76° ENE 04:23:01 10° SSE
USA 305 4.3 04:17:07 10° NW 04:21:11 40° NNE 04:25:15 10° E
SL-4 R/B 3.7 04:19:44 10° W 04:23:12 20° SW 04:26:35 10° S
Cosmos 1674 4.4 04:20:13 10° SSE 04:23:42 36° E 04:27:13 10° NNE
Cosmos 1470 2.8 04:19:56 10° NNW 04:23:44 57° W 04:27:31 10° S
Cosmos 1378 Rocket 4.2 04:20:11 10° SW 04:24:17 37° WNW 04:28:22 10° N
Cosmos 2016 Rocket 4.2 04:21:02 10° N 04:27:26 81° E 04:33:45 10° S
USA 234 4.3 04:23:14 10° NE 04:29:06 37° NNW 04:34:58 10° W
Cosmos 2100 Rocket 4.1 04:24:48 10° NNW 04:30:53 60° W 04:36:59 10° S
METEOR-M 4.3 04:26:44 10° NNE 04:32:07 79° ESE 04:37:27 10° S
Meteor 2-10 4.4 04:27:43 10° NNW 04:33:13 50° W 04:38:30 10° SSW
CZ-2C R/B 2.9 04:29:19 10° N 04:33:49 41° WNW 04:38:25 10° SW
Cosmos 1607 4.3 04:28:04 10° SSW 04:34:27 75° ESE 04:40:57 10° NE
Cosmos 1818 3.6 04:30:01 10° NW 04:35:31 73° WSW 04:40:56 10° SSE
Cosmos 1707 2.9 04:32:49 10° SSW 04:36:36 54° W 04:40:24 10° N
Cosmos 2061 Rocket 4.1 04:30:46 10° N 04:37:00 89° E 04:43:17 10° S
RESURS DK-1 3.3 04:33:35 10° NNW 04:37:41 56° ENE 04:41:46 10° SE
USA 306 3.9 04:34:57 10° NW 04:39:09 50° NNE 04:43:20 10° ESE
Cosmos 1400 Rocket 3.4 04:35:50 10° NNW 04:39:39 37° W 04:43:28 10° SSW
ALOS 2.3 04:35:10 10° N 04:39:48 63° WNW 04:44:24 10° SSW
Cosmos 2173 Rocket 4.1 04:34:35 10° NNW 04:40:29 54° W 04:46:24 10° SSW
